Bangor, Nova Scotia

3:38 AM ADT on May 23, 2017 (GMT -0300)
Bangor

Weather History for 71988 - September, 2013

Change the Weather History Date:

Tuesday, September 24, 2013

  Actual Average Record
Temperature  
Mean Temperature 50 °F -  
Max Temperature 52 °F - - ()
Min Temperature 47 °F - - ()
Degree Days  
Heating Degree Days 16    
Moisture  
Dew Point 45 °F    
Average Humidity 83    
Maximum Humidity 96    
Minimum Humidity 70    
Precipitation  
Precipitation 0.12 in - - ()
Sea Level Pressure  
Sea Level Pressure 29.80 in    
Wind  
Wind Speed 19 mph ()    
Max Wind Speed 25 mph    
Max Gust Speed -    
T = Trace of Precipitation, MM = Missing Value Source: Averaged Metar Reports

Daily Weather History Graph

Daily Weather History Graph

Search for Another Location

Airport or City:

Trip Planner

Search our weather history database for the weather conditions in past years. The results will help you decide how hot, cold, wet, or windy it might be!

Date:

Astronomy

Sep. 24, 2013 Rise Set
Actual Time 7:15 AM ADT 7:18 PM ADT
Civil Twilight 6:46 AM ADT 7:47 PM ADT
Nautical Twilight 6:12 AM ADT 8:21 PM ADT
Astronomical Twilight 5:37 AM ADT 8:55 PM ADT
Moon 10:21 PM ADT (9/24) 12:37 PM ADT (9/24)
Length of Visible Light 13h 01m
Length of Day
12h 03m
Waning Gibbous, 73% of the Moon is Illuminated
Sep 24
Waning Gibbous
Sep 27
Last Quarter
Oct 4
New
Oct 11
First Quarter
Oct 18
Full

Hourly Weather History & Observations

Time (ADT) Temp. Dew Point Humidity Pressure Visibility Wind Dir Wind Speed Gust Speed Precip Events Conditions
12:00 AM 51.8 °F 45.3 °F 79% 29.84 in - West 24.2 mph - N/A   Unknown
1:00 AM 50.9 °F 44.8 °F 80% 29.84 in - West 23.0 mph - N/A   Unknown
2:00 AM 51.1 °F 44.4 °F 78% 29.83 in - West 24.2 mph - N/A   Unknown
3:00 AM 51 °F 45 °F 72% 29.82 in - West 24.2 mph - -  
3:00 AM 50.9 °F 44.8 °F 80% 29.82 in - West 24.2 mph - N/A   Unknown
4:00 AM 50.9 °F 44.4 °F 78% 29.82 in - West 23.0 mph - N/A   Unknown
5:00 AM 51.1 °F 44.4 °F 78% 29.81 in - West 25.3 mph - N/A   Unknown
6:00 AM 51.1 °F 44.6 °F 78% 29.82 in - West 24.2 mph - N/A   Unknown
7:00 AM 50.9 °F 44.2 °F 78% 29.81 in - West 25.3 mph - N/A   Unknown
8:00 AM 50.9 °F 43.7 °F 76% 29.82 in - West 23.0 mph - N/A   Unknown
9:00 AM 51 °F 44 °F 70% 29.81 in - West 24.2 mph - -  
9:00 AM 51.1 °F 44.2 °F 77% 29.81 in - West 24.2 mph - N/A   Unknown
10:00 AM 51.4 °F 44.1 °F 76% 29.81 in - West 21.9 mph - N/A   Unknown
11:00 AM 51.4 °F 44.1 °F 76% 29.82 in - West 20.7 mph - N/A   Unknown
12:00 PM 51.1 °F 44.2 °F 77% 29.81 in - West 19.6 mph - N/A   Unknown
1:00 PM 50.0 °F 44.4 °F 81% 29.81 in - West 19.6 mph - N/A   Unknown
2:00 PM 47.7 °F 45.5 °F 92% 29.80 in - West 20.7 mph - 0.05 in   Unknown
3:00 PM 48 °F 45 °F 87% 29.79 in - West 15.0 mph - -  
3:00 PM 48.2 °F 45.3 °F 90% 29.79 in - West 15.0 mph - 0.03 in   Unknown
4:00 PM 48.4 °F 44.8 °F 87% 29.79 in - West 11.5 mph - N/A   Unknown
5:00 PM 48.4 °F 45.9 °F 91% 29.79 in - WSW 11.5 mph - 0.03 in   Unknown
6:00 PM 47.5 °F 44.6 °F 90% 29.79 in - West 12.7 mph - N/A   Unknown
7:00 PM 48.0 °F 46.0 °F 93% 29.79 in - WSW 8.1 mph - 0.02 in   Unknown
8:00 PM 48.7 °F 47.5 °F 95% 29.78 in - West 16.1 mph - 0.03 in   Unknown
9:00 PM 50 °F 49 °F 93% 29.77 in - WNW 21.9 mph - -  
9:00 PM 50.0 °F 48.6 °F 95% 29.77 in - WNW 21.9 mph - 0.02 in   Unknown
10:00 PM 49.6 °F 48.6 °F 96% 29.77 in - NW 15.0 mph - 0.02 in   Unknown
11:00 PM 49.8 °F 48.0 °F 94% 29.78 in - NNW 11.5 mph - N/A   Unknown